Weather History for Flagstaff, AZ

Change the Weather History Date:

Tuesday, October 5, 2010

  Actual Average Record
Temperature  
Mean Temperature 51 °F 50 °F  
Max Temperature 58 °F 66 °F 80 °F (1975)
Min Temperature 43 °F 35 °F 14 °F (1969)
Degree Days  
Heating Degree Days 14 15  
Month to date heating degree days 38 69  
Since 1 July heating degree days 233 386  
Cooling Degree Days 0 0  
Month to date cooling degree days 0 0  
Year to date cooling degree days 160 117  
Moisture  
Dew Point 46 °F    
Average Humidity 83    
Maximum Humidity 93    
Minimum Humidity 72    
Precipitation  
Precipitation 1.04 in 0.06 in 1.80 in (1940)
Month to date precipitation 1.58 0.30  
Year to date precipitation 21.35 16.87  
Snow  
Snow 0.00 in 0.00 in 3.60 in (1912)
Month to date snowfall 0.0 0.1  
Since 1 July snowfall 0.0 0.1  
Snow Depth -    
Sea Level Pressure  
Sea Level Pressure 30.09 in    
Wind  
Wind Speed 6 mph (South)    
Max Wind Speed 23 mph    
Max Gust Speed 31 mph    
Visibility 8 miles    
Events Rain    
T = Trace of Precipitation, MM = Missing Value Source: NWS Daily Summary

Daily Weather History Graph

Daily Weather History Graph

Search for Another Location

Airport:

Trip Planner

Search our weather history database for the weather conditions in past years. The results will help you decide how hot, cold, wet, or windy it might be!

Date:

Astronomy

Oct. 05, 2010 Rise Set
Actual Time 6:24 AM MST 6:04 PM MST
Civil Twilight 5:59 AM MST 6:30 PM MST
Nautical Twilight 5:29 AM MST 6:59 PM MST
Astronomical Twilight 5:00 AM MST 7:28 PM MST
Moon 3:56 AM MST (10/5) 4:34 PM MST (10/5)
Length of Visible Light 12h 30m
Length of Day
11h 40m
Waning Crescent, 6% of the Moon is Illuminated
Oct 5
Waning Crescent
Oct 7
New
Oct 14
First Quarter
Oct 22
Full
Oct 30
Last Quarter

Hourly Weather History & Observations

Time (MST) Temp. Windchill Dew Point Humidity Pressure Visibility Wind Dir Wind Speed Gust Speed Precip Events Conditions
12:56 AM 48.9 °F - 46.9 °F 93% 29.93 in 10.0 mi Calm Calm - N/A   Overcast
1:56 AM 46.0 °F - 44.1 °F 93% 29.94 in 9.0 mi Calm Calm - N/A   Clear
2:56 AM 44.1 °F - 42.1 °F 93% 29.92 in 10.0 mi Calm Calm - N/A   Clear
3:27 AM 44.6 °F - 42.8 °F 93% 30.15 in 10.0 mi Calm Calm - N/A   Mostly Cloudy
3:56 AM 46.9 °F - 45.0 °F 93% 29.92 in 10.0 mi Calm Calm - N/A   Overcast
4:56 AM 51.1 °F - 48.0 °F 89% 29.94 in 10.0 mi SSE 5.8 mph - N/A   Overcast
5:35 AM 51.8 °F - 48.2 °F 88% 30.16 in 3.0 mi South 6.9 mph 16.1 mph 0.06 in Rain Heavy Rain
5:56 AM 51.1 °F - 48.9 °F 92% 29.97 in 10.0 mi SSW 4.6 mph - 0.12 in Rain Light Rain
6:08 AM 51.8 °F - 48.2 °F 88% 30.16 in 8.0 mi Variable 5.8 mph - 0.01 in Rain Light Rain
6:22 AM 51.8 °F - 48.2 °F 88% 30.16 in 10.0 mi SSW 9.2 mph 17.3 mph 0.01 in   Overcast
6:42 AM 51.8 °F - 48.2 °F 88% 30.17 in 9.0 mi Variable 6.9 mph - 0.03 in Rain Light Rain
6:56 AM 51.1 °F - 48.0 °F 89% 29.99 in 7.0 mi South 12.7 mph 19.6 mph 0.04 in Rain Light Rain
7:03 AM 51.8 °F - 46.4 °F 82% 30.17 in 9.0 mi South 15.0 mph 24.2 mph 0.00 in Rain Light Rain
7:47 AM 51.8 °F - 48.2 °F 88% 30.19 in 10.0 mi South 19.6 mph 26.5 mph 0.00 in   Overcast
7:56 AM 51.1 °F - 48.0 °F 89% 30.01 in 10.0 mi South 11.5 mph 19.6 mph 0.00 in   Overcast
7:58 AM 51.8 °F - 48.2 °F 88% 30.20 in 10.0 mi South 9.2 mph 19.6 mph N/A   Overcast
8:05 AM 51.8 °F - 48.2 °F 88% 30.20 in 10.0 mi SSE 9.2 mph 19.6 mph N/A   Overcast
8:56 AM 51.1 °F - 48.0 °F 89% 30.03 in 10.0 mi South 9.2 mph - N/A   Overcast
9:56 AM 52.0 °F - 46.9 °F 83% 30.02 in 10.0 mi Variable 5.8 mph 19.6 mph N/A   Overcast
10:56 AM 54.0 °F - 48.0 °F 80% 30.02 in 10.0 mi South 10.4 mph 23.0 mph N/A   Overcast
11:06 AM 53.6 °F - 48.2 °F 82% 30.21 in 10.0 mi South 9.2 mph 18.4 mph N/A   Overcast
11:56 AM 55.9 °F - 48.0 °F 75% 30.01 in 10.0 mi South 10.4 mph 24.2 mph 0.00 in Rain Light Rain
12:37 PM 55.4 °F - 44.6 °F 67% 30.19 in 10.0 mi South 13.8 mph 23.0 mph 0.00 in Rain Light Rain
12:56 PM 57.0 °F - 46.0 °F 67% 29.97 in 10.0 mi South 16.1 mph 28.8 mph 0.00 in   Partly Cloudy
1:24 PM 55.4 °F - 46.4 °F 72% 30.18 in 10.0 mi South 9.2 mph 25.3 mph N/A   Mostly Cloudy
1:44 PM 55.4 °F - 46.4 °F 72% 30.17 in 10.0 mi South 11.5 mph 21.9 mph N/A   Mostly Cloudy
1:56 PM 55.9 °F - 46.9 °F 72% 29.96 in 10.0 mi South 13.8 mph 19.6 mph N/A   Scattered Clouds
2:56 PM 50.0 °F - 45.0 °F 83% 30.02 in 4.0 mi SSW 9.2 mph - 0.03 in Rain Rain
3:14 PM 50.0 °F - 46.4 °F 87% 30.21 in 1.8 mi South 4.6 mph - 0.05 in Rain Heavy Rain
3:25 PM 50.0 °F - 46.4 °F 87% 30.22 in 0.8 mi South 12.7 mph 24.2 mph 0.22 in Rain Heavy Rain
3:36 PM 48.2 °F - 46.4 °F 93% 30.22 in 1.0 mi SSW 9.2 mph - 0.34 in Rain Heavy Rain
3:46 PM 48.2 °F - 46.4 °F 93% 30.20 in 3.0 mi Calm Calm - 0.38 in Rain Rain
3:51 PM 48.2 °F - 46.4 °F 93% 30.19 in 6.0 mi Calm Calm - 0.39 in Rain Light Rain
3:56 PM 50.0 °F - 46.9 °F 89% 30.01 in 10.0 mi Calm Calm - 0.39 in   Mostly Cloudy
4:56 PM 48.9 °F - 46.0 °F 90% 30.01 in 4.0 mi East 4.6 mph - 0.05 in Rain Rain
5:56 PM 48.9 °F - 45.0 °F 86% 30.01 in 10.0 mi South 3.5 mph - 0.11 in   Overcast
6:07 PM 48.2 °F - 46.4 °F 93% 30.20 in 4.0 mi Calm Calm - 0.04 in Rain Heavy Rain
6:56 PM 48.9 °F - 46.0 °F 90% 30.04 in 5.0 mi Variable 3.5 mph - 0.10 in Rain Rain
7:36 PM 44.6 °F - 42.8 °F 93% 30.22 in 10.0 mi Calm Calm - 0.07 in   Mostly Cloudy
7:56 PM 45.0 °F 43.5 °F 43.0 °F 93% 30.04 in 10.0 mi NNE 3.5 mph - 0.07 in   Mostly Cloudy
8:21 PM 46.4 °F 44.3 °F 42.8 °F 87% 30.23 in 10.0 mi ENE 4.6 mph - N/A   Overcast
8:56 PM 46.9 °F - 44.1 °F 90% 30.05 in 10.0 mi ENE 4.6 mph - N/A   Overcast
9:56 PM 46.9 °F - 44.1 °F 90% 30.07 in 10.0 mi ENE 5.8 mph - 0.00 in Rain Light Rain
10:12 PM 48.2 °F - 39.2 °F 71% 30.28 in 7.0 mi South 12.7 mph 29.9 mph 0.01 in Rain Rain
10:56 PM 46.0 °F 42.5 °F 41.0 °F 83% 30.07 in 6.0 mi Variable 6.9 mph - 0.12 in Rain Light Rain
11:56 PM 44.1 °F - 41.0 °F 89% 30.07 in 10.0 mi Calm Calm - 0.01 in   Mostly Cloudy